Montana Department of Transportation

Main Content

Accidents and Incidents Report

Hourly Weather Roundup

ASUS45 KTFX 050619
RWRMT 
MONTANA HOURLY WEATHER ROUNDUP
NATIONAL WEATHER SERVICE GREAT FALLS MT
1119 PM MST WED MAR 4 2015

NOTE: "FAIR" INDICATES FEW OR NO CLOUDS BELOW 12000 FEET WITH NO
SIGNIFICANT WEATHER AND/OR OBSTRUCTIONS TO VISIBILITY.

* THESE STATIONS ARE NOT UNDER NWS QUALITY CONTROL. THEY DO NOT
   REPORT WEATHER SUCH AS PRECIPITATION OR FOG.

MTZ001.007-043-050700-
WEST OF THE DIVIDE
CITY           SKY/WX    TMP DP  RH WIND       PRES   REMARKS
KALISPELL      MOCLDY    25  18  75 CALM      30.22R 
MISSOULA       PTCLDY    27  16  63 NW7       30.26R WCI  19 
BUTTE          MOCLDY    25   9  50 N3        30.15R 
MULLAN PASS    PTCLDY    21   5  50 SW7       30.16R WCI  12 
* ANACONDA     PTCLDY    34   9  35 W9         N/A   WCI  27 
* ESSEX        N/A       18  11  74 N/A        N/A   
* EUREKA APT   PTCLDY    21  10  62 CALM      30.23R 
* HAMILTON APT PTCLDY    32  14  47 W1        30.25R 
* LIBBY APT    PTCLDY    25  16  69 CALM      30.24S 
* LINCOLN      N/A       28   9  45 S7G15      N/A   WCI  21 
* LOOKOUT PASS N/A       24  10  55 SE1        N/A   
* POLSON       N/A       26  10  51 S1         N/A   
* RONAN APT    MOCLDY    28  19  69 N/A        N/A   
* SEELEY LAKE  N/A       15   6  67 N2         N/A   
* THOMP F APT  PTCLDY    15   4  61 N2         N/A   
--------------------------------

MTZ008-052.055-050700-
SOUTHWEST MONTANA
CITY           SKY/WX    TMP DP  RH WIND       PRES   REMARKS
BOZEMAN        PTCLDY    18  10  71 SW5       30.15R WCI  11 
DILLON         MOCLDY    28   9  45 SW15      30.14R WCI  16 
* W YELLOWSTON CLEAR     12  -1  56 SW2G9      N/A   
* THREE FORKS  MOCLDY    19   9  65 N/A        N/A   
* BOULDER HILL N/A       28   3  34 SW7        N/A   WCI  21 
* MONIDA PASS  N/A       14   5  67 SE14       N/A   WCI  -1 
* RAYNOLDS PAS N/A        8  -5  55 S8         N/A   WCI  -4 
* WHITEHALL    N/A       33   3  28 W7G19      N/A   WCI  27 
* WISE RIVER   N/A       30   4  33 W10G23     N/A   WCI  21 
--------------------------------

MTZ009.010-012-014-046-048-049-054-050700-
EAST SLOPES AND CENTRAL MONTANA
CITY           SKY/WX    TMP DP  RH WIND       PRES   REMARKS
CUT BANK       CLEAR     28  10  47 W24       29.98R WCI  14 
GREAT FALLS    CLEAR     27  14  58 SW10      30.03R WCI  18 
HELENA         MOCLDY    36  10  34 W17G25    30.11S WCI  26 
MALMSTROM AFB  CLEAR     25  14  63 SW13      30.05R WCI  13 
* CONRAD       CLEAR     27  16  63 CALM       N/A   
* DEARBORN     N/A       36  12  37 SE8G17     N/A   WCI  30 
* EAST GLACIER N/A       27   6  41 NW22G38    N/A   WCI  13 
* MONARCH      N/A       22   1  40 SW8        N/A   WCI  13 
* PENDROY      N/A       27  12  53 W12        N/A   WCI  16 
* ROGERS PASS  N/A       25   9  50 SE22G38    N/A   WCI  10 
* SWEET GRASS  N/A       28  11  49 W19G26     N/A   WCI  15 
* WHITE SULPH  N/A       23   7  50 NW4        N/A   
--------------------------------

MTZ011-013-016-021-035-040-045-047-050-051-050700-
NORTH CENTRAL MONTANA
CITY           SKY/WX    TMP DP  RH WIND       PRES   REMARKS
HAVRE          PTCLDY    27  14  58 SW13      30.00S WCI  16 
LEWISTOWN      CLEAR     21   7  55 W9        30.01R WCI  11 
* CHINOOK      PTCLDY    12   3  67 CALM      30.01F 
* FORT BENTON  CLEAR     27  12  53 SW7       30.05R WCI  19 
* CHESTER      N/A       26  10  51 W3         N/A   
* DENTON       N/A       18   7  62 W3         N/A   
* GEYSER       N/A       27   9  46 W24        N/A   WCI  12 
* JUDITH GAP   N/A       18   2  49 SW1        N/A   
* LOMA         N/A       27  13  55 SW5        N/A   WCI  21 
--------------------------------

MTZ017.020-022.027-061-062-050700-
NORTHEAST MONTANA
CITY           SKY/WX    TMP DP  RH WIND       PRES   REMARKS
GLASGOW        PTCLDY     9  -2  61 E14       30.08F WCI  -7 
GLENDIVE       CLEAR      3  -6  66 S7        30.15F WCI  -9 
JORDAN         CLEAR     16   1  51 CALM      30.07F 
SIDNEY         CLEAR      1  -9  62 CALM      30.21F 
WOLF POINT     CLEAR      5  -2  72 NE5       30.16F WCI  -5 
* BEAVER HILL  N/A        6  -4  63 S11        N/A   WCI  -9 
* CIRCLE       N/A       10   1  67 N/A        N/A   
* LINDSAY DVD  N/A        4  -5  66 S6         N/A   WCI  -7 
* NAVAJO       N/A        5  -6  60 SW10       N/A   WCI -10 
* PLENTYWOOD A CLEAR     -2  -9  72 E7        30.14F WCI -15 
* POPLAR APT   CLEAR      5  -4  66 E6        30.16F WCI  -6 
* SACO         N/A        8   0  70 E9         N/A   WCI  -5 
* SCOBEY APT   CLEAR      5  -9  52 N/A        N/A   
--------------------------------

MTZ028.042-056.058-050700-
SOUTHCENTRAL AND SOUTHEAST MONTANA
CITY           SKY/WX    TMP DP  RH WIND       PRES   REMARKS
BAKER          CLEAR      7  -2  66 S7        30.15F WCI  -5 
BILLINGS       CLEAR     21   7  55 SW22      30.06F WCI   5 
LIVINGSTON     PTCLDY    34   7  32 W21G36    30.07R WCI  22 
MILES CITY     CLEAR     10  -2  58 N/A       30.13F 
* BIG TIMBER A PTCLDY    32   7  35 W30G35    30.01F WCI  18 
* FORSYTH APT  CLEAR     18   5  57 CALM      30.12F 
* LAUREL APT   CLEAR     21   1  41 SW10G21    N/A   WCI  10 
* ROUNDUP APT  CLEAR     21   3  45 N/A        N/A   
* ALZADA       N/A        2  -6  69 E4         N/A   
* HYSHAM       N/A       18   3  52 SW3G9      N/A   
* REED POINT   N/A       18   6  59 SE3        N/A   
--------------------------------

REGIONAL REPORTS...DAKOTAS
CITY           SKY/WX    TMP DP  RH WIND       PRES   REMARKS
WILLISTON      PTCLDY     0  -9  65 S6        30.21F WCI -12 
DICKINSON      PTCLDY     0  -9  65 S9        30.17F WCI -15 
BEACH          PTCLDY     3  -2  79 S6        30.16F WCI  -8 
CROSBY         CLEAR     -8 -13  78 S15       30.19F WCI -30 
TIOGA          CLEAR     -9 -15  74 SE3       30.21F 
WATFORD CITY   CLEAR     -2  -9  72 SE7       30.19F WCI -15 
BISMARCK       PTCLDY    -6 -11  78 E3        30.34S 
GRAND FORKS    CLEAR    -15 -18  86 SW6       30.40S WCI -30 
FARGO          CLEAR     -6 -15  64 W7        30.43S WCI -20 
BUFFALO SD     PTCLDY     3  -8  60 S7        30.11S WCI  -9 
RAPID CITY     PTCLDY     3   0  87 S7        30.23F WCI  -9 
--------------------------------

REGIONAL REPORTS...WYOMING/IDAHO/WASHINGTON
CITY           SKY/WX    TMP DP  RH WIND       PRES   REMARKS
GILLETTE       PTCLDY    16  -2  45 SW14      30.11S WCI   2 
SHERIDAN       PTCLDY     0  -8  68 CALM      30.09F 
CODY           PTCLDY    30   7  38 W18G30    30.06S WCI  18 
YELLOWSTONE LA PTCLDY    -4  -9  79 CALM      30.19R 
SALMON         CLEAR     23  10  57 CALM      30.27R 
MULLAN PASS    PTCLDY    21   5  50 SW7       30.16S WCI  12 
SAND POINT     PTCLDY    28  21  75 CALM      30.27R 
SPOKANE        PTCLDY    34  16  48 SE7       30.25R WCI  28 
--------------------------------

REGIONAL REPORTS...ALBERTA
CITY           SKY/WX    TMP DP  RH WIND       PRES   REMARKS
CALGARY        FAIR      23  10  57 E5        29.95R WCI  16 
LETHBRIDGE     CLEAR     32  12  43 W22G28    29.97R WCI  19 
MEDICINE HAT   PTCLDY    19  14  81 SW9       29.97R WCI   8 
EDMONTON       N/A       14   3  61 SW7       29.92R WCI   4 
WATERTON GATE  N/A       28  10  47 SW28G39    N/A   WCI  13 
CARDSTON       N/A       32  14  47 W17G29     N/A   WCI  21 
MILK RIVER     N/A       23  16  74 NW13       N/A   WCI  11 
--------------------------------

REGIONAL REPORTS...SASKATCHEWAN
CITY           SKY/WX    TMP DP  RH WIND       PRES   REMARKS
SWIFT CURRENT  MOCLDY    10   0  64 S17       29.96F WCI  -8 
REGINA         PTCLDY   -13 -20  70 SE15      30.12F WCI -36 
ASSINIBOIA     N/A        5  -4  66 S8         N/A   WCI  -8 
CORONACH       N/A        1  -4  79 E5         N/A   WCI  -9 

--------------------------------